Regional Weather Roundup
Issued by NWS

Home | Current Version | Previous Version | Text Only | Print | Product List | Glossary Off
Versions: 1 2 3 4 5 6 7 8 9 10 11 12 13 14 15 16 17 18 19 20 21 22 23 24 25 26 27 28 29 30 31 32 33 34 35 36 37 38 39 40 41 42 43 44 45 46 47 48 49 50

000
ASUS43 KMKX 310600
RWRWI

WISCONSIN REGIONAL WEATHER ROUNDUP
NATIONAL WEATHER SERVICE MILWAUKEE/SULLIVAN WI
100 AM CDT SUN AUG 31 2014

NOTE: "FAIR" INDICATES FEW OR NO CLOUDS BELOW 12,000 FEET WITH NO
SIGNIFICANT WEATHER AND/OR OBSTRUCTIONS TO VISIBILITY.

WIZ001-002-006>008-014>016-023>028-310700-
NORTHWEST WISCONSIN

CITY           SKY/WX    TMP DP  RH WIND       PRES   REMARKS
SUPERIOR ARPT  FAIR      60  58  96 CALM      29.88F
ASHLAND        FOG       50  50 100 CALM      29.92S VSB 1/4
6HR MIN TEMP:  50; 6HR MAX TEMP:  61;

HAYWARD        CLOUDY    60  57  89 CALM      29.92S
6HR MIN TEMP:  60; 6HR MAX TEMP:  64;

SIREN          FAIR      60  58  94 SE3       29.90F
RICE LAKE      FAIR      57  55  94 E3        29.92F
6HR MIN TEMP:  56; 6HR MAX TEMP:  66; 6HR PCP:  0.01;

LADYSMITH      MOCLDY    58  57  96 CALM      29.94S
EAU CLAIRE     NOT AVBL
MENOMONIE      FAIR      58  58  98 CALM      29.91S
NEW RICHMOND   CLOUDY    61  61  97 SE3       29.90S
OSCEOLA        CLOUDY    62  62 100 E5        29.91F
$$

WIZ003>005-009-010-017-018-310700-
NORTH CENTRAL WISCONSIN

CITY           SKY/WX    TMP DP  RH WIND       PRES   REMARKS
WOODRUFF       FAIR      56  55  95 CALM      29.95R FOG
RHINELANDER    FAIR      55  54  96 CALM      29.94S
6HR MIN TEMP:  55; 6HR MAX TEMP:  61;

EAGLE RIVER    FAIR      54  54 100 CALM      29.94R
LAND O LAKES   CLOUDY    57  55  94 N5        29.94S
PHILLIPS       FAIR      55  55  99 NE5       29.93S
TOMAHAWK       MOCLDY    55  54  95 CALM      29.94S
MEDFORD        FAIR      54  54  99 CALM      29.93S
MERRILL        FAIR      55  55 100 CALM      29.93S
$$

WIZ029-030-035-036-043>047-310700-
CENTRAL WISCONSIN

CITY           SKY/WX    TMP DP  RH WIND       PRES   REMARKS
WAUSAU         CLOUDY    62  57  83 N6        29.91S
6HR MIN TEMP:  62; 6HR MAX TEMP:  66;

MOSINEE        CLOUDY    61  61 100 NE3       29.92S
MARSHFIELD     CLOUDY    64  60  87 E6        29.92S
6HR MIN TEMP:  64; 6HR MAX TEMP:  67;

STEVENS POINT  CLOUDY    62  59  91 N3        29.92F
WAUPACA        FAIR      65  64  94 CALM      29.91R
WAUTOMA        CLOUDY    66  64  94 CALM      29.91S
WISC RAPIDS    FAIR      61  60  97 CALM      29.92R
6HR MIN TEMP:  60; 6HR MAX TEMP:  71;

CAMP DOUGLAS   NOT AVBL
$$

WIZ011>013-019>022-031-037>040-048>050-310700-
NORTHEAST WISCONSIN

CITY           SKY/WX    TMP DP  RH WIND       PRES   REMARKS
ANTIGO         MOCLDY    57  56  95 N3        29.93R
STURGEON BAY   CLOUDY    63  57  82 NW6       29.90R
6HR MIN TEMP:  63; 6HR MAX TEMP:  68;

GREEN BAY      CLOUDY    65  61  87 CALM      29.90R
6HR MIN TEMP:  65; 6HR MAX TEMP:  71;

MANITOWOC      NOT AVBL
APPLETON       MOCLDY    63  61  94 NW3       29.91S
CLINTONVILLE   CLOUDY    64  59  82 N3        29.90S
OSHKOSH        MOCLDY    66  63  90 N5        29.90R
6HR MIN TEMP:  65; 6HR MAX TEMP:  73;

$$

WIZ032>034-041-042-053>061-310700-
SOUTHWEST WISCONSIN

CITY           SKY/WX    TMP DP  RH WIND       PRES   REMARKS
LA CROSSE      FAIR      66  62  87 NE3       29.89F
6HR MIN TEMP:  65; 6HR MAX TEMP:  76;

SPARTA         FAIR      63  61  94 CALM      29.91F
VIROQUA        CLOUDY    64  64 100 CALM      29.92S
BOSCOBEL       FOG       65  63  93 CALM      29.90S VSB 1/4
6HR MIN TEMP:  65; 6HR MAX TEMP:  78; 6HR PCP:  0.01;

PRAIRIE DU CHI FAIR      66  64  93 CALM      29.89S
PLATTEVILLE    FAIR      66  64  94 CALM      29.92S
$$

WIZ056-057-062-063-064-067-068-310700-
SOUTH CENTRAL WISCONSIN

CITY           SKY/WX    TMP DP  RH WIND       PRES   REMARKS
BARABOO/DELLS  FAIR      64  62  92 CALM      29.91S
LONE ROCK      NOT AVBL
WATERTOWN      FAIR      63  63 100 CALM      29.90R
MADISON        FAIR      65  64  97 CALM      29.91R FOG
6HR MIN TEMP:  65; 6HR MAX TEMP:  78;

MIDDLETON        N/A     66  65  99 CALM      29.91S
MONROE         FAIR      64  63  94 SW6       29.92R
JANESVILLE     FAIR      68  64  88 S3        29.91R
$$

WIZ051-052-058>065-066-070>072-310700-
SOUTHEAST WISCONSIN

CITY           SKY/WX    TMP DP  RH WIND       PRES   REMARKS
MILWAUKEE      FAIR      71  66  84 NW7       29.90R
6HR MIN TEMP:  70; 6HR MAX TEMP:  77;

WAUKESHA       FAIR      64  64 100 CALM      29.92R
MILWAUKEE/TIMM FAIR      66  63  88 CALM      29.91R
RACINE         FAIR      70  65  84 SW3       29.92R
6HR MIN TEMP:  69; 6HR MAX TEMP:  77;

BURLINGTON     FAIR      62  62  99 S3        29.91S
KENOSHA        FAIR      68  66  93 SW8       29.91R
6HR MIN TEMP:  67; 6HR MAX TEMP:  76;

FOND DU LAC    MOCLDY    65  63  93 NW3       29.91R
6HR MIN TEMP:  64; 6HR MAX TEMP:  72; 6HR PCP:  0.01;

SHEBOYGAN      MOCLDY    62  61  96 CALM      29.91R FOG
6HR MIN TEMP:  61; 6HR MAX TEMP:  72;

WEST BEND      CLOUDY    64  61  88 CALM      29.91R
JUNEAU         FAIR      65  64  96 CALM      29.92R
$$

LSZ147-162-310700-
LAKE SUPERIOR

STATION/POSITION TIME  TEMP    WIND        PRES    WAVE
                       AIR SEA DIR/SP/G            HT/PER
                 (UTC) (F)     (DEG/KT/KT) (MB)    (FT/S)
W MID LAKE BUOY  0450   58 58  270/  4/  6 1012.8F   1
DEVILS ISLAND    0500   60     240/  3/  4 1013.3S
PORT WING        0500   60      CALM  /  3 1013.2S
SAXON HARBOR     0500   57        CALM     1013.2S
$$

LMZ867-665-643>646-310700-
LAKE MICHIGAN

STATION/POSITION TIME  TEMP    WIND        PRES    WAVE
                       AIR SEA DIR/SP/G            HT/PER
                 (UTC) (F)     (DEG/KT/KT) (MB)    (FT/S)
N MID LAKE BUOY  0450   63 65  300/ 16/ 17 1010.4R   3/ 4
NORTHPORT PIER   0500   64     310/ 11/ 15 1011.5R
SISTER BAY       0426   64     330/ 14/ 16   N/A
KEWAUNEE LAKESHO 0500   64     340/  2/  4 1011.4R
SHEBOYGAN LAKESH 0500   69 52  330/  4/  4 1012.2R
ATWATER BUOY     0500   67      10/  4/  4 1013.4R
MILWAUKEE LAKESH 0500   72     240/  4/  5   N/A
S MID LAKE BUOY  0450   71 69  210/  8/ 10 1012.3R   1/ 4
KENOSHA   LAKESH 0500   73     230/  7/  9 1012.2R
$$

TC  - TEMPERATURE IN CELSIUS
VSB - VISIBILITY IN STATUTE MILES
WCI - WIND CHILL INDEX
HX  - HEAT INDEX




USA.gov is the U.S. government's official web portal to all federal, state and local government web resources and services.